Flight Track Log - Related Links

Times and Time Zones

All times are in EDT time to prevent confusion due to time zone crossing. See the KAP5 flight status page for this flight to view local times or setup timezone preferences in your user account.

Time Position Orientation Groundspeed Altitude Reporting Facility
EDT Latitude Longitude Course Direction KTS MPH feet Rate Location/Type
Sat 10:51:56 AM 42.7153 -73.8078 179° South 111 128 1,600  Level Boston Center
Sat 10:52:57 AM 42.7025 -73.8331 235° Southwest 119 137 2,500 885 Climbing Boston Center
Sat 10:53:58 AM 42.7292 -73.8589 325° Northwest 126 145 3,400 893 Climbing Boston Center
Sat 10:54:58 AM 42.7603 -73.8794 334° Northwest 126 145 4,300 826 Climbing Boston Center
Sat 10:55:47 AM 42.7828 -73.8997 327° Northwest 127 146 4,900 656 Climbing Boston Center
Sat 10:57:06 AM 42.8261 -73.9347 329° Northwest 140 161 5,700 643 Climbing Boston Center
Sat 10:58:07 AM 42.8592 -73.9639 327° Northwest 144 166 6,400 645 Climbing Boston Center
Sat 10:59:07 AM 42.8942 -73.9903 331° Northwest 145 167 7,000 574 Climbing Boston Center
Sat 11:00:02 AM 42.9292 -74.0167 331° Northwest 147 169 7,500 545 Climbing Boston Center
Sat 11:00:57 AM 42.9622 -74.0431 330° Northwest 149 171 8,000 248 Climbing Boston Center
Sat 11:02:03 AM 43.0056 -74.0783 329° Northwest 168 193 8,000  Level Boston Center
Sat 11:03:04 AM 43.0467 -74.1106 330° Northwest 178 205 8,000  Level Boston Center
Sat 11:04:05 AM 43.0858 -74.1458 327° Northwest 166 191 8,000  Level Boston Center
Sat 11:04:59 AM 43.1250 -74.1725 334° Northwest 162 186 8,000 -52 Level Boston Center
Sat 11:06:01 AM 43.1600 -74.1992 331° Northwest 167 192 7,900 -49 Descending Boston Center
Sat 11:07:01 AM 43.2033 -74.2344 329° Northwest 167 192 7,900  Level Boston Center
Sat 11:08:01 AM 43.2383 -74.2642 328° Northwest 167 192 7,900  Level Boston Center
Sat 11:09:01 AM 43.2814 -74.2967 331° Northwest 162 186 7,900  Level Boston Center
Sat 11:10:01 AM 43.3144 -74.3233 330° Northwest 162 186 7,900  Level Boston Center
Sat 11:11:01 AM 43.3575 -74.3619 327° Northwest 162 186 7,900  Level Boston Center
Sat 11:12:01 AM 43.3986 -74.3947 330° Northwest 167 192 7,900  Level Boston Center
Sat 11:13:01 AM 43.4378 -74.4275 329° Northwest 167 192 7,900  Level Boston Center
Sat 11:14:01 AM 43.4747 -74.4572 330° Northwest 167 192 7,900  Level Boston Center
Sat 11:15:01 AM 43.5136 -74.4872 331° Northwest 167 192 7,900  Level Boston Center
Sat 11:16:01 AM 43.5528 -74.5172 331° Northwest 167 192 7,900  Level Boston Center
Sat 11:17:01 AM 43.5917 -74.5500 329° Northwest 167 192 7,900  Level Boston Center
Sat 11:18:01 AM 43.6286 -74.5800 330° Northwest 167 192 7,900  Level Boston Center
Sat 11:19:01 AM 43.6678 -74.6128 329° Northwest 167 192 7,900  Level Boston Center
Sat 11:20:01 AM 43.7047 -74.6431 329° Northwest 167 192 7,900  Level Boston Center
Sat 11:21:01 AM 43.7417 -74.6731 330° Northwest 161 185 7,900  Level Boston Center
Sat 11:22:01 AM 43.7828 -74.7033 332° Northwest 161 185 7,900  Level Boston Center
Sat 11:23:01 AM 43.8217 -74.7364 328° Northwest 161 185 7,900  Level Boston Center
Sat 11:24:01 AM 43.8606 -74.7697 328° Northwest 161 185 7,900  Level Boston Center
Sat 11:25:01 AM 43.8975 -74.8028 327° Northwest 161 185 7,900  Level Boston Center
Sat 11:26:01 AM 43.9364 -74.8331 331° Northwest 161 185 7,900  Level Boston Center
Sat 11:27:01 AM 43.9753 -74.8636 331° Northwest 161 185 7,900  Level Boston Center
Sat 11:28:01 AM 44.0100 -74.8939 328° Northwest 161 185 7,900 50 Level Boston Center
Sat 11:29:01 AM 44.0489 -74.9272 328° Northwest 161 185 8,000 50 Climbing Boston Center
Sat 11:30:01 AM 44.0878 -74.9578 331° Northwest 161 185 8,000  Level Boston Center
Sat 11:31:01 AM 44.1267 -74.9942 326° Northwest 161 185 8,000  Level Boston Center
Sat 11:32:01 AM 44.1636 -75.0247 329° Northwest 161 185 8,000  Level Boston Center
Sat 11:33:01 AM 44.2022 -75.0581 328° Northwest 166 191 8,000  Level Boston Center
Sat 11:34:01 AM 44.2414 -75.0858 333° Northwest 166 191 8,000 -150 Level Boston Center
Sat 11:35:01 AM 44.2822 -75.1225 327° Northwest 166 191 7,700 -550 Descending Boston Center
Sat 11:36:01 AM 44.3269 -75.1622 328° Northwest 171 197 6,900 -750 Descending Boston Center
Sat 11:37:01 AM 44.3722 -75.1933 334° Northwest 177 204 6,200 -700 Descending Boston Center

Login

Don't have an account? Register now (free) for customized features, flight alerts, and more!